Flag Weather past 2 weeks in Warren, Michigan, U.S.A.

Now
47 °F

Light rain. Overcast.


Feels Like: 44 °F
Forecast: 38 / 46 °F
Wind: 6 mph from Southwest

Location: Detroit City Airport

Current Time: Oct 31, 2014 at 6:11:59 AM

Latest Report: Oct 31, 2014 at 4:53 AM


Visibility: 10 mi

Pressure: 29.94 "Hg

Humidity: 66%

Dew point: 36 °F

Location of WarrenLocation

Historic Weather in Warren — Graph

°F

Warren temperature yesterday

Maximum temperature yesterday: 52 °F (at 3:53 PM)
Minimum temperature yesterday: 44 °F (at 2:53 AM)
Average temperature yesterday: 48 °F

Past Weeks' High & Low Weather Summary

 TemperatureHumidityPressure
High73 °F (Oct 27, 3:53 PM)90% (Oct 16, 4:53 AM)30.34 "Hg (Oct 16, 4:53 AM)
Low35 °F (Oct 19, 7:53 AM)23% (Oct 25, 6:53 PM)29.50 "Hg (Oct 17, 2:53 PM)
Average53 °F64%29.94 "Hg
* Reported Oct 16 4:00 AM — Oct 31 4:53 AM, Warren, Weather by CustomWeather, © 2014

Note: Actual official high and low records may vary slightly from our data, if they occured in-between our weather recording intervals... More about our weather records

Advertising

Warren weather history for previous 24 hours

 ConditionsComfort  
Time TempWeatherWind HumidityBarometerVisibility
4:53 AM
Oct 31
47 °FLight rain. Overcast.6 mph66%29.94 "Hg10 mi
3:53 AM48 °FMostly cloudy.8 mph61%29.96 "Hg10 mi
2:53 AM48 °FOvercast.8 mph61%29.98 "Hg10 mi
1:53 AM48 °FMostly cloudy.7 mph63%29.99 "Hg10 mi
12:53 AM49 °FOvercast.9 mph59%30.01 "Hg10 mi
11:53 PM
Oct 30
49 °FOvercast.9 mph61%30.02 "Hg10 mi
10:53 PM49 °FOvercast.8 mph61%30.03 "Hg10 mi
9:53 PM49 °FOvercast.6 mph59%30.05 "Hg10 mi
8:53 PM49 °FOvercast.7 mph59%30.06 "Hg10 mi
7:53 PM49 °FOvercast.5 mph59%30.07 "Hg10 mi
6:53 PM50 °FPartly sunny.6 mph54%30.08 "Hg10 mi
5:53 PM51 °FOvercast.8 mph50%30.07 "Hg10 mi
4:53 PM51 °FOvercast.3 mph50%30.08 "Hg10 mi
3:53 PM52 °FOvercast.3 mph49%30.08 "Hg10 mi
2:53 PM51 °FOvercast.7 mph50%30.09 "Hg10 mi
1:53 PM50 °FOvercast.3 mph52%30.11 "Hg10 mi
12:53 PM51 °FPartly sunny.No wind50%30.14 "Hg10 mi
11:53 AM50 °FSunny.No wind52%30.15 "Hg10 mi
10:53 AM48 °FSunny.3 mph56%30.16 "Hg10 mi
9:53 AM45 °FPassing clouds.No wind60%30.16 "Hg10 mi
8:53 AM44 °FPassing clouds.No wind60%30.14 "Hg10 mi
7:53 AM44 °FOvercast.6 mph60%30.14 "Hg10 mi
6:53 AM44 °FOvercast.8 mph63%30.14 "Hg10 mi
Weather by CustomWeather, © 2014

See weather overviewHow to use our weather pages